Deep River, CT

5:23 PM EST on December 07, 2016 (GMT -0500)
Chester

Weather History for KSNC - May, 2014

Change the Weather History Date:

Thursday, May 15, 2014

  Actual Average (KHVN) Record (KHVN)
Temperature  
Mean Temperature 65 °F -  
Max Temperature 73 °F 64 °F 84 °F (1976)
Min Temperature 57 °F 47 °F 39 °F (2013)
Growing Degree Days 15 (Base 50)    
Moisture  
Dew Point 61 °F    
Average Humidity 91    
Maximum Humidity 100    
Minimum Humidity 69    
Precipitation  
Precipitation 0.30 in - - ()
Sea Level Pressure  
Sea Level Pressure 30.24 in    
Wind  
Wind Speed 6 mph (SSE)    
Max Wind Speed 14 mph    
Max Gust Speed 21 mph    
Visibility 6 miles    
Events Fog , Rain    
Averages and records for this station are not official NWS values.
T = Trace of Precipitation, MM = Missing Value Source: NWS Daily Summary

Daily Weather History Graph

Daily Weather History Graph

Search for Another Location

Airport or City:

Trip Planner

Search our weather history database for the weather conditions in past years. The results will help you decide how hot, cold, wet, or windy it might be!

Date:

Astronomy

May. 15, 2014 Rise Set
Actual Time 5:31 AM EDT 8:02 PM EDT
Civil Twilight 4:59 AM EDT 8:33 PM EDT
Nautical Twilight 4:20 AM EDT 9:13 PM EDT
Astronomical Twilight 3:36 AM EDT 9:57 PM EDT
Moon 9:07 PM EDT (5/15) 6:15 AM EDT (5/15)
Length of Visible Light 15h 33m
Length of Day
14h 30m
Full, 99% of the Moon is Illuminated
May 15
Full
May 21
Last Quarter
May 28
New
Jun 5
First Quarter
Jun 13
Full

Hourly Weather History & Observations

Time (EDT) Temp. Dew Point Humidity Pressure Visibility Wind Dir Wind Speed Gust Speed Precip Events Conditions
12:15 AM 57.2 °F 55.4 °F 94% 30.29 in 10.0 mi Calm Calm - N/A   Overcast
12:35 AM 57.2 °F 55.4 °F 94% 30.29 in 10.0 mi SE 3.5 mph - N/A   Overcast
12:55 AM 57.2 °F 55.4 °F 94% 30.28 in 7.0 mi SE 4.6 mph - N/A   Overcast
1:15 AM 57.2 °F 55.4 °F 94% 30.27 in 1.5 mi SE 3.5 mph - N/A   Overcast
1:35 AM 57.2 °F 55.4 °F 94% 30.28 in 1.0 mi SSE 3.5 mph - N/A   Overcast
1:55 AM 57.2 °F 57.2 °F 100% 30.28 in 0.8 mi SSE 3.5 mph - N/A   Overcast
2:15 AM 57.2 °F 57.2 °F 100% 30.28 in 1.0 mi SE 3.5 mph - N/A   Overcast
2:35 AM 57.2 °F 57.2 °F 100% 30.28 in 1.0 mi ESE 3.5 mph - N/A   Overcast
2:55 AM 57.2 °F 57.2 °F 100% 30.28 in 0.8 mi SE 3.5 mph - N/A   Overcast
3:15 AM 57.2 °F 57.2 °F 100% 30.28 in 0.8 mi Calm Calm - N/A   Overcast
3:35 AM 57.2 °F 57.2 °F 100% 30.28 in 1.2 mi SE 3.5 mph - N/A   Overcast
3:55 AM 57.2 °F 57.2 °F 100% 30.27 in 1.2 mi SE 3.5 mph - N/A   Overcast
4:15 AM 57.2 °F 57.2 °F 100% 30.26 in 2.0 mi ESE 3.5 mph - N/A   Overcast
4:35 AM 57.2 °F 57.2 °F 100% 30.26 in 3.0 mi SE 4.6 mph - N/A   Overcast
4:55 AM 59.0 °F 57.2 °F 94% 30.26 in 4.0 mi SE 4.6 mph - N/A   Overcast
5:15 AM 59.0 °F 57.2 °F 94% 30.25 in 4.0 mi SE 4.6 mph - N/A   Overcast
5:55 AM 60.8 °F 60.8 °F 100% 30.25 in 5.0 mi SE 5.8 mph - N/A   Overcast
6:15 AM 60.8 °F 60.8 °F 100% 30.26 in 5.0 mi SE 5.8 mph - N/A   Overcast
6:35 AM 60.8 °F 60.8 °F 100% 30.26 in 5.0 mi SE 4.6 mph - N/A   Overcast
6:55 AM 60.8 °F 60.8 °F 100% 30.27 in 5.0 mi SE 6.9 mph - N/A   Overcast
7:15 AM 60.8 °F 59.0 °F 94% 30.27 in 5.0 mi ESE 4.6 mph - N/A   Overcast
7:55 AM 60.8 °F 59.0 °F 94% 30.27 in 6.0 mi SE 4.6 mph - N/A   Overcast
8:15 AM 60.8 °F 59.0 °F 94% 30.27 in 7.0 mi SSE 4.6 mph - N/A   Overcast
8:35 AM 60.8 °F 59.0 °F 94% 30.27 in 8.0 mi SE 4.6 mph - N/A   Overcast
8:55 AM 62.6 °F 59.0 °F 88% 30.27 in 8.0 mi SE 5.8 mph - N/A   Overcast
9:15 AM 62.6 °F 60.8 °F 94% 30.27 in 9.0 mi SE 5.8 mph - N/A   Overcast
9:35 AM 64.4 °F 60.8 °F 88% 30.26 in 8.0 mi SE 4.6 mph - N/A   Overcast
9:55 AM 64.4 °F 60.8 °F 88% 30.26 in 9.0 mi SE 5.8 mph - N/A   Overcast
10:15 AM 66.2 °F 60.8 °F 83% 30.26 in 10.0 mi South 8.1 mph - N/A   Overcast
10:35 AM 66.2 °F 60.8 °F 83% 30.26 in 10.0 mi ESE 6.9 mph - N/A   Overcast
10:55 AM 69.8 °F 62.6 °F 78% 30.26 in 10.0 mi ESE 6.9 mph - N/A   Overcast
11:15 AM 69.8 °F 62.6 °F 78% 30.26 in 10.0 mi SSE 9.2 mph - N/A   Overcast
11:35 AM 69.8 °F 60.8 °F 73% 30.26 in 10.0 mi South 10.4 mph - N/A   Overcast
11:55 AM 69.8 °F 60.8 °F 73% 30.26 in 10.0 mi South 9.2 mph - N/A   Overcast
12:15 PM 68.0 °F 62.6 °F 83% 30.26 in 9.0 mi SSE 10.4 mph 18.4 mph N/A   Overcast
12:35 PM 68.0 °F 62.6 °F 83% 30.25 in 9.0 mi SE 9.2 mph - N/A   Overcast
12:55 PM 69.8 °F 62.6 °F 78% 30.25 in 10.0 mi SSE 6.9 mph - N/A   Overcast
1:15 PM 69.8 °F 62.6 °F 78% 30.25 in 10.0 mi SSE 11.5 mph 19.6 mph N/A   Overcast
1:35 PM 69.8 °F 62.6 °F 78% 30.24 in 10.0 mi SSE 13.8 mph 19.6 mph N/A   Mostly Cloudy
1:55 PM 71.6 °F 62.6 °F 73% 30.24 in 10.0 mi SSE 12.7 mph 20.7 mph N/A   Overcast
2:15 PM 73.4 °F 62.6 °F 69% 30.23 in 10.0 mi SSE 9.2 mph 18.4 mph N/A   Overcast
2:55 PM 73.4 °F 62.6 °F 69% 30.23 in 10.0 mi South 12.7 mph - N/A   Overcast
3:15 PM 71.6 °F 62.6 °F 73% 30.22 in 10.0 mi SSE 11.5 mph 20.7 mph N/A   Mostly Cloudy
3:35 PM 71.6 °F 64.4 °F 78% 30.22 in 10.0 mi South 13.8 mph - N/A   Mostly Cloudy
3:55 PM 71.6 °F 64.4 °F 78% 30.21 in 10.0 mi South 12.7 mph 19.6 mph N/A   Mostly Cloudy
4:15 PM 69.8 °F 64.4 °F 83% 30.21 in 9.0 mi SSE 10.4 mph 19.6 mph N/A   Overcast
4:35 PM 69.8 °F 64.4 °F 83% 30.21 in 9.0 mi South 9.2 mph - N/A   Overcast
4:55 PM 68.0 °F 62.6 °F 83% 30.21 in 9.0 mi South 10.4 mph 18.4 mph N/A   Overcast
5:15 PM 66.2 °F 62.6 °F 88% 30.21 in 8.0 mi South 12.7 mph - N/A   Overcast
5:35 PM 66.2 °F 62.6 °F 88% 30.21 in 8.0 mi SSE 11.5 mph 18.4 mph N/A   Overcast
5:55 PM 66.2 °F 62.6 °F 88% 30.21 in 8.0 mi SSE 12.7 mph 16.1 mph N/A   Overcast
6:15 PM 66.2 °F 62.6 °F 88% 30.20 in 8.0 mi SSE 9.2 mph - N/A   Overcast
6:35 PM 64.4 °F 62.6 °F 94% 30.20 in 7.0 mi SSE 6.9 mph - N/A   Overcast
6:55 PM 64.4 °F 62.6 °F 94% 30.20 in 7.0 mi SSE 5.8 mph - N/A   Overcast
7:15 PM 64.4 °F 62.6 °F 94% 30.20 in 5.0 mi SE 6.9 mph - N/A   Overcast
7:35 PM 64.4 °F 62.6 °F 94% 30.20 in 5.0 mi SSE 6.9 mph - N/A   Overcast
7:55 PM 64.4 °F 62.6 °F 94% 30.20 in 4.0 mi SSE 5.8 mph - N/A   Overcast
8:15 PM 64.4 °F 62.6 °F 94% 30.20 in 5.0 mi SSE 8.1 mph - N/A   Overcast
8:35 PM 62.6 °F 62.6 °F 100% 30.21 in 1.5 mi SSE 9.2 mph - 0.09 in Rain Heavy Rain
8:55 PM 62.6 °F 62.6 °F 100% 30.21 in 2.5 mi SSE 5.8 mph - 0.30 in Rain Light Rain
9:15 PM 62.6 °F 62.6 °F 100% 30.21 in 2.5 mi SSE 9.2 mph - N/A   Overcast
9:35 PM 62.6 °F 62.6 °F 100% 30.21 in 0.5 mi South 8.1 mph - N/A Fog Fog
9:55 PM 62.6 °F 62.6 °F 100% 30.20 in 1.0 mi SSE 9.2 mph - N/A   Overcast
10:15 PM 62.6 °F 62.6 °F 100% 30.20 in 1.8 mi SSE 10.4 mph - N/A   Overcast
10:35 PM 62.6 °F 62.6 °F 100% 30.19 in 3.0 mi SSE 9.2 mph - N/A   Overcast
10:55 PM 62.6 °F 62.6 °F 100% 30.19 in 3.0 mi SSE 8.1 mph - N/A   Overcast
11:15 PM 62.6 °F 62.6 °F 100% 30.19 in 3.0 mi SSE 9.2 mph - N/A   Overcast
11:35 PM 62.6 °F 62.6 °F 100% 30.18 in 1.8 mi SE 5.8 mph - N/A   Overcast
11:55 PM 62.6 °F 62.6 °F 100% 30.18 in 1.5 mi SE 5.8 mph - N/A   Overcast